Regional Weather Roundup
Issued by NWS

Home | Current Version | Previous Version | Text Only | Print | Product List | Glossary On
Versions: 1 2 3 4 5 6 7 8 9 10 11 12 13 14 15 16 17 18 19 20 21 22 23 24 25 26 27 28 29 30 31 32 33 34 35 36 37 38 39 40 41 42 43 44 45 46 47 48 49 50
000
ASUS42 KFFC 281103
RWRGA
WEATHER ROUNDUP FOR GEORGIA
NATIONAL WEATHER SERVICE PEACHTREE CITY GA
700 AM EDT THU AUG 28 2014

NOTE: "FAIR" INDICATES FEW OR NO CLOUDS BELOW 12,000 FEET WITH NO
SIGNIFICANT WEATHER AND/OR OBSTRUCTIONS TO VISIBILITY.

* = USE WITH CAUTION. THE STATIONS MARKED WITH AN ASTERISK MAY NOT
REPORT WEATHER SUCH AS PRECIPITATION, FOG, OR THUNDER AND ARE NOT
QUALITY CONTROLLED BY NWS.

THE REMARK "TC" DENOTES TEMPERATURE READING IN DEGREES CELSIUS.

GAZ001>058-281200-
NORTH GEORGIA

CITY           SKY/WX    TMP DP  RH WIND       PRES   REMARKS
ATLANTA        PTCLDY    69  63  81 CALM      30.06R
ATHENS         CLEAR     62  59  90 CALM      30.05R
CHAMBLEE       CLEAR     63  60  90 CALM      30.06R
PEACHTREE CITY CLEAR     60  59  96 CALM      30.06R
ROME           CLEAR     62  60  93 CALM      30.06R
WEST ATLANTA   CLEAR     63  60  90 CALM      30.06R
GAINESVILLE    CLEAR     67  65  93 CALM      30.09R
CARTERSVILLE   CLEAR     60  59  96 CALM      30.07R


CITY           SKY/WX    TMP DP  RH WIND       PRES   REMARKS
DALTON*        CLEAR     61  61 100 CALM      30.07R
LAWRENCEVILLE* CLEAR     61  55  82 CALM      30.05
MARIETTA       PTCLDY    65  64  95 CALM      30.07R
KENNESAW*      CLEAR    N/A N/A N/A CALM      30.05
$$

GAZ059>098-102>109-281200-
CENTRAL GEORGIA

CITY           SKY/WX    TMP DP  RH WIND       PRES   REMARKS
AUGUSTA-BUSH   CLEAR     57  57 100 CALM      30.02S
AUGUSTA-DANIEL CLEAR     70  59  68 CALM      30.04R
COLUMBUS       CLEAR     67  62  84 CALM      30.03R
MACON          CLEAR     59  59 100 CALM      30.04R
ROBINS AFB     CLEAR     62  62  97 CALM      30.03R


CITY           SKY/WX    TMP DP  RH WIND       PRES   REMARKS
LAGRANGE*      CLEAR     63  62  97 CALM      30.05R FOG
SYLVANIA*      CLEAR     62  62 100 CALM      30.04S
MILLEDGEVILLE* PTCLDY    63  63 100 CALM      30.04R
$$

GAZ099>101-110>166-281200-
SOUTH GEORGIA

CITY           SKY/WX    TMP DP  RH WIND       PRES   REMARKS
SAVANNAH       PTCLDY    66  62  87 CALM      30.03R
VALDOSTA       CLEAR     63  60  90 CALM      30.02R FOG
ALMA           CLEAR     60  59  96 CALM      30.03R FOG
ST SIMONS      CLEAR     69  66  90 CALM      30.02R
FT STEWART     CLEAR     64  61  91 CALM      30.02R
ALBANY         CLEAR     62  61  96 CALM      30.04R
HUNTER AFB     CLEAR     65  65  98 W3        30.01R
MOODY AFB      CLEAR     65  63  94 SE2       30.02R
BRUNSWICK      CLEAR     66  63  88 CALM      30.03R


CITY           SKY/WX    TMP DP  RH WIND       PRES   REMARKS
BAINBRIDGE*    CLEAR     68  64  88 CALM      30.01R
MOULTRIE*      CLEAR     64  63  94 CALM      30.03S
VIDALIA*         N/A     64  63  94 CALM      30.04R
WAYCROSS*      CLEAR     64  63  97 E5        30.03R
DOUGLAS*       CLEAR     64  63  94 CALM      30.04R
$$


USA.gov is the U.S. government's official web portal to all federal, state and local government web resources and services.